| time (UTC) | temp F | wind direction | speed knots | gust knots | rain 1hr in | rain 24hr in | rain mn in | humidity % | barometer mb |
| 20260503213057 | 78 | 0 | 0.0 | 5.2 | 0.00 | 0.00 | 0.00 | 47 | 1017.7 |
| 20260503211554 | 79 | 166 | 0.0 | 2.6 | 0.00 | 0.00 | 0.00 | 46 | 1017.9 |
| 20260503210055 | 78 | 0 | 0.0 | 2.6 | 0.00 | 0.00 | 0.00 | 44 | 1018.2 |
| 20260503204554 | 79 | 0 | 0.9 | 2.6 | 0.00 | 0.00 | 0.00 | 44 | 1018.5 |
| 20260503203110 | 79 | 136 | 0.9 | 2.6 | 0.00 | 0.00 | 0.00 | 43 | 1018.6 |
| 20260503201556 | 78 | 0 | 0.9 | 3.5 | 0.00 | 0.00 | 0.00 | 43 | 1019.1 |
| 20260503200105 | 78 | 0 | 0.0 | 2.6 | 0.00 | 0.00 | 0.00 | 44 | 1019.2 |
| 20260503194557 | 79 | 0 | 0.9 | 3.5 | 0.00 | 0.00 | 0.00 | 42 | 1019.5 |
| 20260503193055 | 78 | 0 | 0.0 | 1.7 | 0.00 | 0.00 | 0.00 | 45 | 1019.9 |
| 20260503191556 | 78 | 205 | 0.9 | 2.6 | 0.00 | 0.00 | 0.00 | 47 | 1020.0 |
| 20260503190106 | 78 | 109 | 0.9 | 2.6 | 0.00 | 0.00 | 0.00 | 46 | 1020.4 |
| 20260503184602 | 78 | 0 | 0.0 | 2.6 | 0.00 | 0.00 | 0.00 | 46 | 1020.4 |
| 20260503183057 | 78 | 0 | 0.0 | 1.7 | 0.00 | 0.00 | 0.00 | 46 | 1020.6 |
| 20260503181602 | 77 | 0 | 0.0 | 3.5 | 0.00 | 0.00 | 0.00 | 46 | 1020.9 |
| 20260503180058 | 78 | 250 | 0.0 | 2.6 | 0.00 | 0.00 | 0.00 | 46 | 1021.0 |
| 20260503174554 | 77 | 205 | 0.0 | 2.6 | 0.00 | 0.00 | 0.00 | 51 | 1021.4 |
| 20260503173054 | 77 | 180 | 0.9 | 3.5 | 0.00 | 0.00 | 0.00 | 52 | 1021.7 |
| 20260503171601 | 76 | 199 | 0.0 | 2.6 | 0.00 | 0.00 | 0.00 | 52 | 1022.0 |
| 20260503100108 | 57 | 0 | 0.0 | 0.0 | 0.00 | 0.01 | 0.00 | 81 | 1019.9 |
| 20260503081600 | 59 | 0 | 0.0 | 0.0 | 0.00 | 0.01 | 0.00 | 72 | 1019.9 |
| 20260503071553 | 60 | 0 | 0.0 | 0.0 | 0.00 | 0.01 | 0.00 | 71 | 1020.2 |
| 20260503060116 | 61 | 0 | 0.0 | 0.0 | 0.00 | 0.01 | 0.00 | 70 | 1020.4 |
| 20260503054603 | 61 | 0 | 0.0 | 0.0 | 0.00 | 0.01 | 0.00 | 69 | 1020.3 |
| 20260503053053 | 61 | 0 | 0.0 | 0.0 | 0.00 | 0.01 | 0.00 | 67 | 1020.3 |
| 20260503051552 | 62 | 0 | 0.0 | 0.0 | 0.00 | 0.01 | 0.00 | 70 | 1020.3 |
| 20260503050055 | 62 | 0 | 0.0 | 0.0 | 0.00 | 0.01 | 0.00 | 72 | 1020.2 |
| 20260503044553 | 63 | 0 | 0.0 | 0.0 | 0.00 | 0.01 | 0.01 | 72 | 1020.3 |
| 20260503043053 | 63 | 0 | 0.0 | 0.0 | 0.00 | 0.01 | 0.01 | 70 | 1020.3 |
| 20260503041552 | 63 | 0 | 0.0 | 0.0 | 0.00 | 0.01 | 0.01 | 70 | 1020.1 |
| 20260503040052 | 64 | 0 | 0.0 | 0.0 | 0.00 | 0.01 | 0.01 | 69 | 1020.0 |
| 20260503034550 | 64 | 0 | 0.0 | 0.0 | 0.00 | 0.01 | 0.01 | 68 | 1019.9 |
| 20260503033106 | 65 | 0 | 0.0 | 0.0 | 0.00 | 0.01 | 0.01 | 67 | 1020.0 |
| 20260503031554 | 65 | 0 | 0.0 | 0.0 | 0.00 | 0.01 | 0.01 | 66 | 1019.7 |
| 20260503030054 | 66 | 0 | 0.0 | 0.0 | 0.00 | 0.01 | 0.01 | 64 | 1019.6 |
| 20260503024555 | 66 | 0 | 0.0 | 0.0 | 0.00 | 0.01 | 0.01 | 63 | 1019.6 |
| 20260503023102 | 67 | 0 | 0.0 | 0.0 | 0.00 | 0.01 | 0.01 | 61 | 1019.3 |
| 20260503021553 | 67 | 0 | 0.0 | 0.0 | 0.00 | 0.01 | 0.01 | 60 | 1019.2 |
| 20260503020052 | 68 | 0 | 0.0 | 0.0 | 0.00 | 0.01 | 0.01 | 58 | 1018.8 |
| 20260503014559 | 69 | 0 | 0.0 | 0.0 | 0.00 | 0.01 | 0.01 | 58 | 1018.9 |
| 20260503013056 | 70 | 0 | 0.0 | 0.0 | 0.00 | 0.01 | 0.01 | 56 | 1018.6 |
| 20260503011551 | 71 | 0 | 0.0 | 0.0 | 0.00 | 0.01 | 0.01 | 55 | 1018.6 |
| 20260503010054 | 71 | 0 | 0.0 | 0.0 | 0.00 | 0.01 | 0.01 | 53 | 1018.3 |
| 20260503004553 | 72 | 0 | 0.0 | 0.0 | 0.00 | 0.01 | 0.01 | 51 | 1018.0 |
| 20260503003107 | 72 | 0 | 0.0 | 0.9 | 0.00 | 0.01 | 0.01 | 50 | 1018.1 |
| 20260503001554 | 73 | 0 | 0.0 | 2.6 | 0.00 | 0.01 | 0.01 | 49 | 1018.0 |
| 20260503000055 | 73 | 0 | 0.0 | 0.9 | 0.00 | 0.01 | 0.01 | 48 | 1017.8 |
| 20260502234559 | 73 | 0 | 0.0 | 0.9 | 0.00 | 0.04 | 0.01 | 48 | 1017.7 |
| 20260502233054 | 73 | 0 | 0.0 | 1.7 | 0.00 | 0.04 | 0.01 | 47 | 1017.7 |
| 20260502231609 | 73 | 0 | 0.0 | 1.7 | 0.00 | 0.04 | 0.01 | 47 | 1017.7 |
| 20260502230058 | 73 | 0 | 0.0 | 2.6 | 0.00 | 0.04 | 0.01 | 47 | 1017.8 |
| 20260502224559 | 73 | 69 | 0.0 | 3.5 | 0.00 | 0.09 | 0.01 | 46 | 1017.8 |
| 20260502223054 | 74 | 71 | 0.0 | 2.6 | 0.00 | 0.09 | 0.01 | 48 | 1017.9 |
| 20260502221552 | 74 | 63 | 0.9 | 2.6 | 0.00 | 0.09 | 0.01 | 46 | 1017.8 |
| 20260502220056 | 74 | 63 | 0.9 | 4.3 | 0.00 | 0.09 | 0.01 | 46 | 1018.1 |
| 20260502214554 | 74 | 0 | 0.0 | 1.7 | 0.00 | 0.18 | 0.01 | 48 | 1018.1 |